When you browse on this site, cookies collect data to enhance your experience and personalize the content and advertising you see.
Visit our Privacy Policy to learn more. By continuing to use the site, you agree to this use of cookies and data.
  • In Hungary
  • List of Countries
  • For 7 days
  • Water Temperature
  • Satellite Maps
  • Weather Map
  • News
  • Weather Widgets
  • user-avatar
    Login

    Hourly Weather Kasaragod

    Today, 26 April, Friday

    Time Temperature Precipitation Wind Pressure Humidity
    00:00 +30°C° 0 mm 1 mps 754 mmHg 78%
    01:00 +30°C° 0 mm 1 mps 754 mmHg 79%
    02:00 +30°C° 0 mm 1 mps 754 mmHg 80%
    03:00 +29°C° 0 mm 1 mps 754 mmHg 82%
    04:00 +29°C° 0 mm 1 mps 754 mmHg 84%
    05:00 +28°C° 0 mm 1 mps 754 mmHg 86%
    06:00 +30°C° 0 mm 1 mps 754 mmHg 78%
    07:00 +32°C° 0 mm 1 mps 754 mmHg 71%
    08:00 +33°C° 0 mm 1 mps 755 mmHg 64%
    09:00 +36°C° 0 mm 2 mps 754 mmHg 57%
    10:00 +38°C° 0 mm 2 mps 754 mmHg 51%
    11:00 +40°C° 0 mm 3 mps 754 mmHg 44%
    12:00 +40°C° 0 mm 4 mps 753 mmHg 45%
    13:00 +40°C° 0 mm 4 mps 753 mmHg 47%
    14:00 +39°C° 0 mm 5 mps 752 mmHg 49%
    15:00 +37°C° 0 mm 5 mps 752 mmHg 53%
    16:00 +36°C° 0 mm 4 mps 752 mmHg 58%
    17:00 +35°C° 0 mm 4 mps 752 mmHg 62%
    18:00 +34°C° 0 mm 3 mps 752 mmHg 66%
    19:00 +32°C° 0 mm 2 mps 753 mmHg 71%
    20:00 +31°C° 0 mm 1 mps 753 mmHg 75%
    21:00 +30°C° 0 mm 1 mps 754 mmHg 77%
    22:00 +30°C° 0 mm 1 mps 754 mmHg 79%
    23:00 +30°C° 0 mm 1 mps 754 mmHg 81%

    Tomorrow, 27 April, Saturday

    Time Temperature Precipitation Wind Pressure Humidity
    00:00 +30°C° 0 mm 1 mps 754 mmHg 82%
    01:00 +29°C° 0 mm 1 mps 754 mmHg 84%
    02:00 +29°C° 0 mm 1 mps 753 mmHg 85%
    03:00 +29°C° 0 mm 1 mps 753 mmHg 87%
    04:00 +28°C° 0 mm 1 mps 753 mmHg 88%
    05:00 +28°C° 0 mm 1 mps 753 mmHg 89%
    06:00 +30°C° 0 mm 1 mps 753 mmHg 81%
    07:00 +31°C° 0 mm 1 mps 754 mmHg 74%
    08:00 +31°C° 0 mm 0 mps 754 mmHg 66%
    09:00 +35°C° 0 mm 1 mps 754 mmHg 59%
    10:00 +37°C° 0 mm 2 mps 754 mmHg 53%
    11:00 +39°C° 0 mm 2 mps 754 mmHg 46%
    12:00 +39°C° 0 mm 3 mps 753 mmHg 47%
    13:00 +39°C° 0 mm 3 mps 753 mmHg 48%
    14:00 +40°C° 0 mm 4 mps 752 mmHg 49%
    15:00 +37°C° 0 mm 4 mps 752 mmHg 54%
    16:00 +36°C° 0 mm 4 mps 752 mmHg 59%
    17:00 +35°C° 0 mm 4 mps 752 mmHg 65%
    18:00 +34°C° 0 mm 3 mps 752 mmHg 69%
    19:00 +32°C° 0 mm 2 mps 753 mmHg 73%
    20:00 +31°C° 0 mm 1 mps 753 mmHg 77%
    21:00 +31°C° 0 mm 1 mps 753 mmHg 78%
    22:00 +31°C° 0 mm 1 mps 754 mmHg 78%
    23:00 +31°C° 0 mm 1 mps 754 mmHg 78%

    Day after tomorrow, 28 April, Sunday

    Time Temperature Precipitation Wind Pressure Humidity
    00:00 +30°C° 0 mm 1 mps 753 mmHg 79%
    01:00 +30°C° 0 mm 1 mps 753 mmHg 80%
    02:00 +30°C° 0 mm 1 mps 752 mmHg 81%
    03:00 +30°C° 0 mm 1 mps 752 mmHg 82%
    04:00 +28°C° 0 mm 0 mps 752 mmHg 84%
    05:00 +27°C° 0 mm 0 mps 752 mmHg 85%
    06:00 +28°C° 0 mm 0 mps 753 mmHg 80%
    07:00 +29°C° 0 mm 0 mps 753 mmHg 75%
    08:00 +32°C° 0 mm 1 mps 754 mmHg 70%
    09:00 +34°C° 0 mm 1 mps 754 mmHg 62%
    10:00 +37°C° 0 mm 2 mps 754 mmHg 54%
    11:00 +40°C° 0 mm 2 mps 754 mmHg 47%
    12:00 +39°C° 0 mm 3 mps 753 mmHg 48%
    13:00 +40°C° 0 mm 4 mps 752 mmHg 50%
    14:00 +38°C° 0 mm 4 mps 751 mmHg 52%
    15:00 +37°C° 0 mm 4 mps 751 mmHg 56%
    16:00 +36°C° 0 mm 4 mps 751 mmHg 61%
    17:00 +35°C° 0 mm 3 mps 751 mmHg 65%
    18:00 +34°C° 0 mm 3 mps 752 mmHg 69%
    19:00 +32°C° 0 mm 2 mps 752 mmHg 72%
    20:00 +32°C° 0 mm 2 mps 753 mmHg 75%
    21:00 +31°C° 0 mm 2 mps 753 mmHg 76%
    22:00 +31°C° 0 mm 2 mps 753 mmHg 77%
    23:00 +31°C° 0 mm 2 mps 754 mmHg 78%

    29 April, Monday

    Time Temperature Precipitation Wind Pressure Humidity
    00:00 +31°C° 0.1 mm 2 mps 753 mmHg 80%
    01:00 +31°C° 0.1 mm 2 mps 753 mmHg 81%
    02:00 +31°C° 0.1 mm 1 mps 752 mmHg 83%
    03:00 +30°C° 0.1 mm 1 mps 752 mmHg 84%
    04:00 +30°C° 0.1 mm 1 mps 752 mmHg 84%
    05:00 +30°C° 0.1 mm 1 mps 752 mmHg 85%
    06:00 +31°C° 0 mm 1 mps 753 mmHg 81%
    07:00 +32°C° 0 mm 1 mps 754 mmHg 77%
    08:00 +33°C° 0 mm 1 mps 754 mmHg 73%
    09:00 +34°C° 0 mm 1 mps 754 mmHg 66%
    10:00 +37°C° 0 mm 2 mps 754 mmHg 58%
    11:00 +39°C° 0 mm 3 mps 754 mmHg 50%
    12:00 +38°C° 0 mm 4 mps 753 mmHg 51%
    13:00 +38°C° 0 mm 4 mps 752 mmHg 52%
    14:00 +39°C° 0 mm 5 mps 751 mmHg 54%
    15:00 +37°C° 0 mm 4 mps 751 mmHg 59%
    16:00 +35°C° 0 mm 4 mps 752 mmHg 65%
    17:00 +34°C° 0 mm 4 mps 752 mmHg 71%
    18:00 +33°C° 0 mm 3 mps 752 mmHg 74%
    19:00 +33°C° 0 mm 3 mps 753 mmHg 77%
    20:00 +31°C° 0 mm 2 mps 754 mmHg 81%
    21:00 +31°C° 0 mm 2 mps 754 mmHg 82%
    22:00 +31°C° 0 mm 2 mps 754 mmHg 83%
    23:00 +30°C° 0 mm 2 mps 754 mmHg 84%

    30 April, Tuesday

    Time Temperature Precipitation Wind Pressure Humidity
    00:00 +30°C° 0.1 mm 2 mps 753 mmHg 85%
    01:00 +30°C° 0.1 mm 2 mps 753 mmHg 85%
    02:00 +30°C° 0.1 mm 2 mps 752 mmHg 85%
    03:00 +30°C° 0 mm 2 mps 752 mmHg 86%
    04:00 +30°C° 0 mm 2 mps 752 mmHg 87%
    05:00 +29°C° 0 mm 1 mps 752 mmHg 88%
    06:00 +30°C° 0 mm 2 mps 753 mmHg 86%
    07:00 +30°C° 0 mm 2 mps 754 mmHg 83%
    08:00 +31°C° 0 mm 2 mps 754 mmHg 81%
    09:00 +31°C° 0.1 mm 2 mps 754 mmHg 79%
    10:00 +31°C° 0.1 mm 2 mps 754 mmHg 78%
    11:00 +32°C° 0.1 mm 1 mps 754 mmHg 76%
    12:00 +32°C° 0 mm 2 mps 753 mmHg 72%
    13:00 +34°C° 0 mm 3 mps 752 mmHg 68%
    14:00 +35°C° 0 mm 3 mps 752 mmHg 64%
    15:00 +34°C° 0 mm 3 mps 752 mmHg 65%
    16:00 +34°C° 0 mm 3 mps 752 mmHg 66%
    17:00 +34°C° 0 mm 3 mps 752 mmHg 67%
    18:00 +33°C° 0 mm 3 mps 752 mmHg 71%
    19:00 +31°C° 0 mm 2 mps 753 mmHg 75%
    20:00 +30°C° 0 mm 2 mps 753 mmHg 80%
    21:00 +30°C° 0 mm 2 mps 753 mmHg 81%
    22:00 +30°C° 0 mm 1 mps 753 mmHg 82%
    23:00 +29°C° 0 mm 1 mps 754 mmHg 84%

    1 May, Wednesday

    Time Temperature Precipitation Wind Pressure Humidity
    00:00 +29°C° 0.1 mm 1 mps 753 mmHg 84%
    01:00 +29°C° 0.1 mm 1 mps 752 mmHg 84%
    02:00 +29°C° 0.1 mm 1 mps 752 mmHg 85%
    03:00 +29°C° 0.1 mm 1 mps 752 mmHg 86%
    04:00 +29°C° 0.1 mm 1 mps 752 mmHg 88%
    05:00 +28°C° 0.1 mm 1 mps 752 mmHg 89%
    06:00 +29°C° 0 mm 1 mps 753 mmHg 83%
    07:00 +31°C° 0 mm 1 mps 753 mmHg 78%
    08:00 +32°C° 0 mm 1 mps 754 mmHg 72%
    09:00 +32°C° 0 mm 2 mps 754 mmHg 69%
    10:00 +34°C° 0 mm 3 mps 753 mmHg 66%
    11:00 +34°C° 0 mm 3 mps 753 mmHg 63%
    12:00 +35°C° 0 mm 4 mps 752 mmHg 60%
    13:00 +35°C° 0 mm 4 mps 752 mmHg 58%
    14:00 +36°C° 0 mm 4 mps 751 mmHg 55%
    15:00 +35°C° 0 mm 4 mps 751 mmHg 58%
    16:00 +34°C° 0 mm 4 mps 751 mmHg 61%
    17:00 +33°C° 0 mm 3 mps 752 mmHg 63%
    18:00 +33°C° 0 mm 3 mps 752 mmHg 68%
    19:00 +31°C° 0 mm 3 mps 753 mmHg 73%
    20:00 +30°C° 0 mm 2 mps 753 mmHg 78%
    21:00 +30°C° 0.1 mm 2 mps 753 mmHg 79%
    22:00 +30°C° 0.1 mm 2 mps 753 mmHg 80%
    23:00 +30°C° 0.1 mm 2 mps 753 mmHg 81%
    Show more